星链-5359 (STARLINK-5359 )

导读 | 豆包AI

STARLINK-5359是美国SpaceX公司星链(Starlink)项目的低轨通信卫星,于2022年12月28日发射,属于星链第二代组网卫星。作为全球规模最大低轨卫星互联网星座的组成部分,它运行在近地轨道,依托星链集群组网,为全球提供高速低延迟宽带服务,助力补充偏远地区网络覆盖,支撑星链网络的稳定性与服务能力。

Basic Information
目录编号:
54864
目录名称:
STARLINK-5359
国际标识:
2022-177AW
轨道中心:
EARTH
卫星名称:
星链-5359
卫星全名:
星链-5359 (STARLINK-5359 )
卫星状态:
在轨 (已飞行1173 天)
发射日期:
2022-12-28 UTC
国别 :
美国 (US)
星等 :
--
Orbit Information
数据来源 国际轨道数据 AOE轨道数据
星历时间 2026-03-15T14:00:01+0800
8小时前
查看轨道信息
2026-03-09T09:00:00+0800
6天前
查看轨道信息
半长轴 6908.533km 6937.151km
偏心率 0.0001744 0.0001252
轨道倾角 42.999° 43.000°
近地点辐角 289.142° 239.159°
升交点赤经 89.714° 123.650°
平近点角 162.427° 348.832°
近地点 529.191km 558.145km
远地点 531.601km 559.883km
周期 95.244分钟 95.837分钟
每日圈数 15.119033 15.025574
Detailed Information
固有亮度:
5
最大亮度:
2.5
卫星平台:
Starlink v1.5
覆盖范围:
全球
运营商:
太空探索技术公司
运营商所在国:
美国
制造商(研发单位):
太空探索技术公司
制造商所在国:
美国
使用方式:
暂无
Satellite Introduction
星链(Starlink)计划是由太空探索技术公司(SpaceX)提出的一个巨型低轨卫星互联网星座项目,计划在2019年至2024年间在太空搭建由约1.2万颗卫星组成的“星链”网络,其中1584颗将部署在地球上空550千米处的近地轨道,并从2020年开始工作。该卫星仍在工作。
2D Orbit Map
3D Orbit Map
Orbit Altitude Analysis Chart
Orbit Inclination Analysis Chart
Orbit Comprehensive Analysis Chart
View Comprehensive Chart